Temp_Advection
nan nan nan nan nan nan nan nan nan nan nan nan nan nan nan nan nan nan nan nan nan nan nan nan nan nan nan nan nan nan nan nan nan nan nan nan nan nan nan nan nan nan nan nan nan nan nan nan nan
nan 0 -0 -0 -0 0 -0 -0 -0 0 0 -0 -0 -0 -1 -0 -0 -0 -0 0 0 0 -0 -0 0 0 0 0 -0 0 0 0 0 0 0 0 0 0 0 0 0 -0 -0 -0 0 0 0 -0 nan
nan -0 -0 -0 0 -0 -0 -0 0 0 0 -0 -0 -1 -0 -0 -0 -0 -0 0 -0 0 -0 -0 0 0 0 0 0 -0 0 0 0 0 0 0 -0 0 0 0 0 -0 -0 0 0 -0 -0 -0 nan
nan 0 -0 -0 -0 -0 0 0 0 -0 -0 -1 -0 -0 -0 -0 -0 0 0 0 -0 0 0 -0 0 0 0 0 0 0 0 0 0 0 0 0 0 0 0 0 -0 0 -0 0 -0 -0 -0 -0 nan
nan -0 -0 0 -0 -0 -0 0 -1 -0 -0 -1 -0 -0 -0 -0 -0 -0 -0 -0 -0 0 -0 -0 0 0 0 0 0 0 0 0 0 0 -0 0 0 0 0 0 -0 -0 -0 -0 -0 -0 -0 0 nan
nan -0 -0 -0 -0 -0 0 0 -0 -0 -0 -1 -0 -0 -0 0 -0 -0 -0 -0 0 0 0 0 -0 0 0 0 0 0 0 0 0 -0 -0 0 0 -0 -0 -0 -0 -0 -0 0 0 0 0 0 nan
nan -0 -0 -0 -0 -0 0 -0 -0 0 -0 -0 -0 -0 -0 0 -0 -0 -0 -0 -0 0 0 -0 0 0 0 0 0 0 0 0 0 -0 0 0 0 -0 -0 -0 0 0 0 0 0 0 0 0 nan
nan 0 -0 -0 -0 -0 -0 -1 -0 -0 -0 -0 0 0 -0 0 -0 -0 -0 -0 0 0 -0 0 0 0 0 0 0 0 0 1 -0 0 0 0 -0 -0 -0 0 0 0 0 0 0 0 0 0 nan
nan -0 -0 -0 -0 -0 -1 -1 -1 -1 -0 -1 -0 -0 -0 0 0 -0 -0 -0 -0 0 0 0 0 0 0 0 0 0 0 0 -0 0 0 0 -0 -0 0 0 0 0 0 0 0 0 0 0 nan
nan 0 -0 0 0 0 -0 -0 -1 -0 -1 -1 -1 -1 0 -0 -0 -0 -0 0 0 -0 0 0 0 1 0 0 0 0 0 -0 -0 0 0 -0 -0 -0 0 0 0 0 0 0 0 0 0 0 nan
nan -0 -0 -0 -0 -0 -0 -0 -0 0 -0 -1 -1 -1 -1 -1 -0 0 -0 -0 -0 -0 -0 -0 0 -0 0 0 0 0 -0 -0 0 0 0 -0 -0 0 0 0 0 0 0 0 0 0 0 0 nan
nan -0 -0 -0 -0 -0 -0 -0 -0 -0 -1 -1 0 -0 -0 -1 -1 -1 -0 -0 -0 0 -0 -0 -0 0 -0 0 0 -0 -0 -0 0 0 -0 -0 -0 0 1 0 0 0 0 0 0 0 0 0 nan
nan -0 -0 -0 0 -0 0 0 -0 -1 -1 -0 0 0 0 -0 -0 0 0 0 0 -0 -0 -0 -0 -0 0 1 0 -0 0 0 1 1 -0 -0 0 1 0 0 0 0 0 0 0 0 -0 0 nan
nan -0 -0 -0 -0 0 -0 0 -0 -1 -0 0 -0 -0 0 0 0 0 0 0 0 0 -0 -0 0 -0 -0 0 0 0 1 1 1 1 1 -0 0 0 0 0 0 0 0 0 0 0 0 -0 nan
nan 0 -1 -0 -0 -0 0 0 -1 -2 -0 -1 -1 -0 -0 -0 -0 0 0 0 0 0 0 0 -0 -0 -0 -0 0 1 0 1 2 2 0 0 1 0 0 0 0 0 0 0 0 0 0 0 nan
nan 0 -0 -0 -0 -0 0 0 -0 -1 0 -0 -1 -1 -1 -1 -0 -0 0 0 0 0 0 0 0 -0 -0 0 0 1 1 1 1 1 1 0 1 1 1 0 0 0 0 0 -0 -0 -0 -0 nan
nan 0 -0 -1 -1 0 -0 -0 -1 -1 0 -0 -1 -0 -0 -1 -1 -1 -0 0 0 0 0 0 0 0 0 0 0 1 0 -0 1 1 0 0 0 1 1 0 0 0 0 0 0 -0 0 0 nan
nan 0 -0 -0 -0 -0 0 -1 -1 -1 0 0 -0 -1 -1 -1 -1 -0 -0 -0 -0 0 1 0 0 0 0 0 1 1 0 1 2 1 -1 -0 0 0 1 0 0 0 0 -0 0 0 0 0 nan
nan 0 -0 -1 -0 -0 -0 -0 -1 -1 0 -0 -1 -1 -0 -0 0 0 0 0 -0 -0 0 0 0 0 1 1 1 0 0 1 1 -0 -1 -0 1 0 0 0 0 0 0 0 0 0 -0 -0 nan
nan 0 -0 -1 -0 -0 -0 -1 -1 -0 -0 -1 -1 -1 -0 0 0 0 0 0 0 -0 -0 0 0 0 0 0 0 0 1 1 1 1 0 1 0 -0 -0 0 0 0 0 -0 -0 -0 -0 -0 nan
nan -0 -0 -0 -1 0 0 -0 -1 -1 -1 -1 0 0 0 1 0 0 0 0 0 0 -0 -0 0 0 0 0 1 1 1 1 1 0 1 2 -1 0 -0 -0 0 0 -0 -0 -0 -0 -0 -0 nan
nan -1 0 1 -0 -0 0 -0 -0 -0 -0 -1 -1 0 0 -0 -0 -0 -1 -1 -1 -0 0 0 -0 0 0 1 1 1 1 1 0 -0 1 -0 1 1 0 -0 0 0 0 0 0 0 0 0 nan
nan -0 0 0 1 -0 -0 0 -0 -1 -0 0 -0 -0 -0 0 0 -0 -1 -0 -1 -1 0 -1 -1 0 1 1 1 1 1 0 0 1 1 1 3 -0 1 -0 -0 0 0 0 0 0 0 0 nan
nan -0 0 -0 0 0 -0 0 -1 -0 -0 0 -0 -0 -0 -1 -1 -0 -1 -1 -1 -1 1 0 -1 -1 1 1 1 1 1 0 0 1 0 1 -1 1 -0 -0 0 0 0 0 0 0 0 0 nan
nan -1 -0 0 0 -1 -0 -0 -0 -1 -0 0 0 -0 -0 -0 -1 -2 -1 -0 -2 -1 -0 0 -1 -0 1 1 1 2 0 0 0 0 0 0 -1 0 0 0 0 1 1 0 0 0 0 0 nan
nan -0 -0 0 -0 -1 0 -0 -1 -0 0 0 0 -0 -2 -1 -0 -1 -1 0 0 -0 1 0 -1 1 1 1 2 1 0 1 1 1 0 -0 -0 1 1 0 0 1 1 0 0 0 0 0 nan
nan -0 -0 0 0 -0 -0 -1 -1 0 -0 -1 -1 -0 -0 -1 -1 -2 -1 -0 -0 0 0 -1 -0 1 1 1 1 1 1 1 1 1 0 1 0 1 -0 0 1 0 0 0 0 0 0 0 nan
nan -0 -0 -0 -0 -0 -0 -0 -0 -1 0 0 -0 -1 -1 -1 -1 -1 -1 -0 0 0 1 0 1 1 1 1 1 1 1 1 1 1 0 1 1 -0 -0 0 0 0 0 0 0 0 0 0 nan
nan 0 -0 0 -0 0 -0 -1 -0 0 1 1 -0 -0 -0 -0 -1 -1 -0 0 0 0 1 1 1 1 1 1 1 1 1 1 0 1 1 0 0 -0 -0 0 0 0 0 0 0 0 0 0 nan
nan nan nan nan nan nan nan nan nan nan nan nan nan nan nan nan nan nan nan nan nan nan nan nan nan nan nan nan nan nan nan nan nan nan nan nan nan nan nan nan nan nan nan nan nan nan nan nan nan
Wind_Speed
7 3 6 4 4 5 3 6 4 10 6 11 8 7 8 13 4 2 5 7 5 7 9 11 19 17 17 17 16 15 15 13 14 13 11 10 9 10 8 8 7 6 6 6 4 3 4 3 5
5 5 5 2 4 2 4 2 7 5 6 11 11 11 9 3 11 5 2 7 8 7 11 9 20 18 17 17 16 15 14 13 13 12 11 10 11 9 6 6 7 7 7 7 5 5 4 2 1
5 5 2 4 3 4 3 3 3 9 12 15 7 8 5 4 8 3 8 10 15 8 15 8 18 19 18 17 17 16 14 12 12 12 12 13 12 7 6 7 7 7 8 7 6 5 4 4 3
7 3 1 4 3 5 3 2 4 6 11 15 8 4 6 4 3 3 8 7 10 7 14 11 11 18 17 17 16 16 15 14 12 14 15 13 10 7 7 8 9 9 8 7 7 6 5 4 3
3 2 3 1 4 3 3 5 15 7 8 14 8 6 3 3 2 5 12 4 10 5 17 14 10 18 17 16 16 16 16 14 16 17 15 13 10 8 8 8 8 8 7 7 7 6 4 3 4
3 2 4 1 3 5 4 13 8 10 10 14 7 11 2 3 7 8 11 8 9 8 12 17 14 13 16 16 16 17 17 17 19 18 15 13 10 9 9 8 8 8 8 7 6 5 5 5 7
4 3 2 2 4 4 2 6 9 6 7 5 11 4 2 7 5 8 11 14 6 14 13 15 18 17 17 19 20 20 19 20 22 17 15 13 11 10 9 9 8 8 7 6 6 5 5 7 10
4 3 3 4 3 1 9 9 8 10 7 9 8 4 6 3 1 16 22 16 9 11 18 19 15 20 20 22 22 22 22 23 22 16 15 13 12 11 10 10 9 8 7 6 6 6 8 10 14
3 4 2 5 5 7 15 9 10 16 17 20 15 18 21 24 26 28 21 23 24 14 17 21 23 23 24 26 26 25 25 26 24 17 16 15 13 13 12 10 9 8 7 7 8 9 11 13 16
5 3 1 2 3 4 11 14 21 9 25 34 23 25 22 23 23 23 15 19 21 20 15 18 24 26 24 28 29 29 27 29 24 20 18 17 16 14 12 11 10 9 9 9 10 11 13 15 17
5 3 5 4 8 14 12 18 14 13 11 23 26 25 21 24 26 25 22 19 16 21 24 20 17 22 28 27 30 32 32 31 28 22 20 20 18 14 12 11 11 11 12 12 13 15 15 15 16
3 6 8 7 13 13 8 15 11 21 34 35 35 34 33 33 30 29 31 30 27 26 25 26 23 21 24 29 30 33 35 33 31 27 24 23 20 15 13 12 12 13 14 15 16 15 13 13 10
2 4 12 19 25 21 19 18 12 28 33 28 27 28 27 30 27 27 29 31 29 27 28 27 26 24 23 25 30 36 40 37 33 30 27 25 21 16 15 14 14 15 16 16 15 15 14 14 13
7 13 22 15 17 15 10 13 9 21 25 25 24 24 23 23 29 30 28 25 25 25 29 30 30 26 26 26 26 38 40 38 37 33 30 26 22 19 19 17 17 17 16 16 14 13 16 16 15
10 5 9 7 5 6 7 3 9 27 23 29 26 29 33 33 29 26 27 30 25 25 25 26 25 27 26 26 24 30 24 35 37 28 27 26 24 21 20 18 19 19 19 20 20 17 16 14 14
2 1 5 6 14 7 2 8 6 26 30 26 36 38 36 33 31 33 33 33 33 31 28 26 26 27 24 29 24 23 33 26 24 31 27 25 23 22 23 22 21 22 23 21 21 19 17 15 13
3 3 6 9 11 5 4 16 15 29 32 33 32 35 35 36 37 34 30 28 29 31 30 28 25 25 28 27 24 20 21 34 35 29 24 23 20 22 23 23 22 24 24 22 20 19 18 18 15
6 5 5 11 6 18 19 24 16 30 27 27 34 37 36 34 31 21 11 15 21 25 27 28 27 27 26 26 23 19 22 31 35 35 27 23 19 22 23 23 23 25 24 22 22 21 19 17 16
5 5 11 15 18 15 14 19 25 31 31 23 24 28 22 8 4 5 7 11 13 16 23 25 27 30 24 27 24 21 24 32 36 33 30 25 21 22 23 24 25 26 24 22 21 21 19 20 19
7 8 12 12 8 10 19 20 23 18 14 20 25 24 12 7 5 8 9 10 7 15 20 25 29 30 28 23 21 23 25 31 31 32 31 35 25 23 21 24 26 25 26 24 23 22 22 21 21
6 6 7 10 14 10 12 7 6 19 17 20 24 17 12 9 8 8 11 12 10 13 16 27 32 32 31 25 25 27 27 34 38 34 33 28 31 20 22 23 24 25 24 22 22 22 20 23 23
4 5 7 12 8 5 7 7 7 8 9 11 11 9 2 3 15 21 26 29 29 42 43 32 37 36 34 27 29 31 33 40 42 41 39 34 26 28 26 25 25 23 22 21 21 20 19 19 21
9 3 8 14 9 3 4 3 7 7 16 11 6 10 13 17 20 28 39 41 45 42 32 36 41 40 35 30 30 31 30 39 42 38 34 35 31 32 27 27 24 23 22 21 20 19 18 17 16
7 6 10 2 4 1 5 3 14 7 2 2 5 14 13 21 32 41 54 49 45 34 29 27 41 42 37 32 31 33 37 40 43 39 37 36 32 26 24 23 23 23 23 22 20 18 17 17 16
4 6 4 6 4 5 4 9 10 13 1 3 5 8 18 26 37 40 47 37 36 29 27 22 41 40 36 34 33 35 38 37 43 43 40 37 35 29 28 27 25 23 23 22 20 19 18 16 16
3 5 4 4 3 11 14 6 6 5 10 6 9 16 36 42 44 45 36 30 31 25 22 26 39 37 34 31 35 37 33 45 46 46 42 41 38 29 28 27 24 24 23 22 21 20 19 18 17
1 1 5 3 5 3 4 8 15 7 9 12 17 27 32 39 39 34 27 25 21 13 22 34 33 33 32 29 32 39 42 44 45 41 39 34 30 30 28 26 25 24 23 22 22 22 21 19 15
5 2 3 2 4 6 6 9 7 11 7 9 10 23 37 35 36 34 23 10 7 20 25 26 26 27 26 30 37 42 43 42 43 40 35 32 34 33 31 27 26 25 23 23 23 23 20 16 14
2 2 2 1 2 4 5 8 4 14 16 10 14 33 34 33 33 21 12 6 3 12 17 20 20 21 27 37 41 42 41 40 40 37 35 33 32 31 29 28 26 25 24 23 22 21 19 14 12
6 8 7 4 5 5 4 22 18 15 9 4 18 32 29 30 24 15 5 10 9 11 13 13 16 21 37 42 41 40 39 38 39 35 31 32 32 31 28 26 26 26 25 23 20 18 15 11 10
Wind_Direction
354 351 122 96 64 68 272 281 20 5 22 352 343 42 111 53 14 109 138 179 349 200 230 222 197 187 182 177 171 168 166 163 155 160 156 157 154 148 145 149 152 153 140 142 137 147 137 123 111
7 100 82 42 89 67 276 0 43 15 14 357 46 16 61 70 54 86 251 336 214 205 225 236 201 191 187 183 177 173 171 163 160 161 162 162 159 157 166 179 187 187 188 203 212 191 197 217 148
47 65 33 91 124 177 163 355 67 20 31 38 10 26 50 16 44 42 351 332 169 293 223 249 213 198 192 190 182 179 174 170 167 166 166 165 173 182 185 189 189 211 228 217 210 213 232 255 259
30 57 60 88 237 272 40 252 58 24 10 11 11 17 72 45 97 342 348 11 189 267 215 241 248 207 200 195 190 184 182 180 174 182 183 189 203 225 224 222 225 228 228 221 221 232 242 244 226
25 36 55 82 251 305 37 63 66 34 15 4 1 312 356 160 246 268 305 33 179 204 224 255 265 215 206 205 197 191 191 189 187 189 198 206 223 238 239 231 226 230 230 223 220 222 220 198 156
35 54 64 232 306 322 57 35 54 49 6 347 17 342 80 197 280 309 312 320 227 222 227 236 243 235 219 210 208 202 196 197 197 199 206 224 236 241 247 237 224 220 220 217 212 202 187 161 141
76 67 198 282 291 349 50 22 49 3 337 302 331 321 223 204 323 334 316 309 292 234 216 226 230 224 230 226 210 209 204 203 197 205 217 230 239 244 244 237 220 213 210 208 205 189 164 146 137
45 92 318 329 317 22 10 4 11 14 301 304 296 250 267 80 31 322 311 294 295 241 226 234 233 232 228 230 220 212 207 203 212 212 221 230 236 243 231 224 219 212 209 204 193 169 153 143 140
23 59 321 357 22 296 354 5 341 328 303 300 285 273 275 282 290 297 291 286 281 273 235 236 243 240 239 234 227 217 214 211 221 217 222 229 235 237 233 218 218 213 204 193 180 164 150 143 144
57 97 339 320 331 337 346 343 328 332 303 293 291 278 275 280 288 299 283 282 283 282 256 244 247 244 239 236 226 224 218 218 229 225 225 229 232 231 226 214 208 201 195 183 168 159 152 145 147
351 195 352 333 341 345 328 313 308 301 283 272 278 295 289 281 278 282 288 281 282 281 275 262 263 253 241 235 229 228 222 219 227 228 225 230 230 224 212 208 204 189 180 173 163 154 154 150 155
353 271 308 287 319 318 290 292 273 258 260 279 285 289 288 287 283 284 280 278 279 270 277 272 263 267 251 245 241 230 228 223 224 227 223 231 230 222 209 205 195 182 173 165 163 163 159 160 160
201 307 310 290 294 282 277 260 253 272 284 300 303 300 290 288 287 286 277 274 272 267 265 269 265 268 261 251 245 237 224 225 229 223 221 226 227 223 215 201 192 178 170 165 169 172 171 181 184
299 299 292 294 282 267 244 256 265 272 303 311 307 304 297 296 284 285 282 274 272 272 265 264 260 261 263 260 245 218 223 225 228 218 215 217 223 219 209 200 190 183 178 172 179 183 179 182 192
283 311 305 283 319 255 257 269 240 282 292 297 300 299 295 292 287 276 286 269 269 271 273 265 264 259 262 264 262 241 234 220 212 209 212 218 217 215 212 205 199 185 185 183 187 187 186 188 184
245 219 350 300 312 311 333 280 244 295 293 288 292 289 291 294 286 281 277 268 267 269 271 266 261 254 259 256 257 249 241 217 206 206 215 221 215 211 208 207 200 191 191 192 192 196 190 191 185
342 283 293 320 320 292 20 288 272 290 281 287 290 292 289 286 286 279 274 273 271 267 262 255 253 259 251 249 248 240 237 235 220 216 204 213 220 212 208 206 198 195 194 192 196 191 190 181 173
299 328 293 287 278 307 295 283 288 294 291 286 286 285 286 285 286 288 284 284 282 269 260 253 255 250 253 241 235 226 227 221 227 211 193 205 220 216 210 204 198 197 197 190 188 188 180 177 174
282 262 273 278 287 300 286 303 296 301 298 290 285 294 286 241 252 287 288 305 299 280 263 256 248 246 243 237 222 214 215 217 201 208 217 219 217 219 213 208 200 198 201 195 192 188 181 174 175
271 287 284 288 275 305 300 302 289 292 279 279 281 277 229 253 244 245 254 268 281 284 275 259 247 248 243 235 239 227 221 213 203 205 210 220 199 230 219 210 203 198 198 194 192 191 180 177 174
267 243 278 270 312 281 305 277 295 302 304 310 311 296 229 241 218 259 272 278 279 296 285 264 250 243 243 238 225 211 208 205 190 191 199 200 203 225 228 214 205 198 197 194 188 183 185 179 172
291 229 260 293 346 321 66 296 288 298 299 302 295 192 193 329 322 317 315 306 292 294 282 269 254 242 237 235 221 217 206 206 200 200 198 199 209 215 229 215 203 196 189 190 185 181 179 185 184
242 308 288 286 286 23 327 254 262 298 289 299 355 14 343 334 329 319 316 304 302 302 280 263 239 233 230 230 223 214 211 207 200 202 196 190 183 189 212 208 200 191 184 185 185 178 175 173 183
291 299 299 37 99 20 242 139 300 295 287 299 311 337 340 323 320 309 314 300 291 289 283 259 227 220 222 219 216 220 216 207 202 194 190 178 180 172 202 202 195 187 179 179 176 170 170 172 172
45 29 345 356 8 238 286 333 247 276 321 255 297 304 313 314 320 316 311 306 298 283 282 251 217 210 211 206 216 217 211 215 198 191 181 173 171 181 194 193 189 181 177 173 171 165 162 159 157
277 142 147 281 283 290 289 233 253 238 213 286 323 329 332 320 311 308 308 305 299 288 252 214 200 201 202 207 211 212 212 202 194 186 181 174 168 178 189 185 181 179 173 167 162 155 152 149 145
173 213 194 230 265 289 252 281 310 301 344 2 330 328 317 320 316 312 318 313 298 251 204 193 191 198 201 204 204 203 203 198 191 187 176 170 162 176 189 180 178 172 165 162 157 151 149 147 140
168 177 15 7 309 297 274 289 245 307 312 322 317 322 326 324 321 329 327 315 226 190 184 188 197 194 195 199 198 193 197 196 183 171 167 173 166 179 180 174 173 165 161 158 154 150 144 145 138
82 277 162 185 178 226 298 281 217 304 320 314 329 337 326 320 322 326 348 163 223 211 187 186 188 203 197 193 192 188 185 172 167 168 169 172 172 175 171 170 166 161 157 153 154 148 143 140 128
214 231 173 136 256 233 246 278 283 268 348 323 330 335 329 330 330 318 271 245 207 184 178 192 206 200 178 179 185 184 170 165 165 160 167 173 171 169 167 166 162 158 155 153 154 146 138 130 124
Height
1515 1514 1514 1514 1526 1530 1532 1520 1510 1510 1507 1504 1502 1501 1506 1508 1511 1520 1514 1515 1512 1513 1514 1514 1516 1518 1520 1522 1524 1525 1527 1528 1530 1531 1533 1535 1536 1536 1537 1538 1539 1540 1541 1541 1542 1542 1543 1543 1543
1515 1514 1514 1515 1533 1541 1535 1518 1517 1513 1509 1505 1502 1502 1504 1511 1512 1514 1516 1515 1514 1512 1514 1514 1515 1516 1519 1521 1523 1525 1527 1528 1530 1531 1532 1534 1535 1536 1537 1538 1538 1539 1540 1540 1541 1542 1542 1542 1543
1514 1514 1516 1521 1533 1538 1530 1518 1514 1511 1509 1507 1506 1506 1507 1513 1514 1515 1515 1514 1513 1511 1513 1515 1516 1516 1517 1519 1521 1524 1526 1528 1530 1531 1532 1533 1534 1535 1536 1537 1537 1538 1539 1539 1539 1540 1541 1541 1542
1515 1517 1519 1528 1528 1520 1516 1516 1512 1510 1510 1510 1510 1510 1513 1514 1514 1514 1514 1514 1513 1510 1512 1515 1517 1517 1518 1519 1520 1522 1524 1526 1528 1530 1531 1531 1533 1534 1535 1536 1536 1537 1537 1537 1538 1539 1539 1540 1541
1517 1518 1527 1529 1522 1516 1515 1514 1511 1513 1514 1513 1513 1512 1513 1513 1514 1514 1513 1514 1514 1514 1514 1515 1516 1516 1518 1519 1520 1521 1522 1525 1527 1528 1530 1531 1532 1533 1534 1534 1534 1535 1535 1536 1536 1537 1537 1538 1539
1517 1519 1534 1534 1524 1517 1516 1515 1512 1515 1515 1515 1515 1514 1514 1513 1514 1513 1513 1513 1514 1513 1513 1514 1515 1516 1516 1518 1520 1520 1521 1523 1525 1526 1528 1529 1530 1531 1532 1532 1533 1533 1534 1535 1535 1536 1537 1537 1539
1519 1526 1531 1525 1524 1519 1517 1515 1516 1516 1516 1516 1517 1516 1513 1513 1512 1512 1512 1511 1513 1512 1512 1512 1513 1513 1515 1516 1517 1519 1520 1522 1522 1524 1526 1527 1528 1529 1529 1530 1531 1532 1533 1533 1534 1535 1536 1537 1538
1522 1525 1526 1524 1527 1522 1519 1517 1517 1518 1516 1515 1515 1514 1511 1512 1512 1511 1511 1510 1510 1510 1510 1511 1511 1512 1513 1514 1515 1516 1518 1519 1520 1521 1523 1525 1526 1527 1527 1528 1530 1530 1531 1532 1533 1534 1535 1537 1538
1523 1532 1535 1530 1528 1525 1520 1520 1518 1518 1514 1513 1513 1512 1511 1509 1510 1509 1509 1507 1506 1508 1508 1509 1508 1508 1510 1511 1512 1513 1515 1517 1518 1520 1521 1522 1523 1524 1525 1526 1528 1529 1530 1531 1532 1534 1535 1536 1538
1525 1535 1529 1527 1526 1525 1523 1522 1521 1520 1513 1503 1508 1505 1507 1506 1505 1505 1505 1504 1503 1503 1504 1505 1505 1505 1505 1507 1509 1510 1512 1514 1516 1517 1518 1520 1520 1521 1523 1524 1525 1527 1529 1530 1532 1533 1535 1536 1538
1528 1531 1527 1524 1525 1525 1523 1521 1521 1519 1511 1506 1504 1501 1502 1502 1500 1499 1501 1500 1500 1500 1500 1501 1500 1501 1501 1502 1504 1506 1508 1510 1512 1514 1515 1516 1518 1519 1521 1522 1523 1525 1527 1528 1531 1532 1534 1535 1537
1531 1526 1527 1524 1523 1523 1523 1520 1517 1514 1504 1502 1502 1500 1497 1496 1496 1495 1494 1494 1495 1496 1495 1496 1496 1497 1497 1497 1498 1501 1503 1506 1508 1511 1511 1512 1515 1517 1519 1520 1523 1524 1525 1527 1529 1531 1533 1534 1535
1529 1526 1525 1522 1520 1518 1516 1514 1514 1503 1499 1498 1496 1493 1491 1490 1488 1488 1489 1489 1489 1489 1490 1491 1491 1492 1492 1492 1493 1495 1496 1500 1504 1506 1507 1508 1511 1514 1517 1519 1521 1523 1524 1526 1528 1530 1533 1535 1536
1528 1526 1521 1516 1514 1513 1511 1509 1510 1495 1494 1493 1491 1488 1485 1484 1483 1482 1482 1482 1482 1483 1484 1485 1486 1486 1487 1488 1491 1476 1489 1496 1498 1502 1503 1505 1507 1510 1514 1517 1519 1521 1523 1524 1527 1529 1531 1534 1535
1527 1527 1520 1511 1511 1508 1506 1508 1502 1493 1492 1489 1486 1483 1481 1480 1479 1477 1476 1476 1477 1477 1478 1479 1480 1481 1482 1484 1484 1486 1483 1487 1491 1497 1503 1503 1504 1507 1510 1513 1517 1519 1521 1523 1525 1527 1529 1532 1534
1528 1528 1529 1512 1510 1508 1508 1504 1495 1491 1486 1482 1480 1475 1473 1471 1470 1470 1469 1469 1470 1471 1472 1473 1474 1475 1476 1477 1480 1482 1486 1486 1482 1495 1501 1502 1503 1504 1508 1512 1515 1517 1519 1521 1524 1526 1528 1530 1533
1529 1541 1530 1520 1507 1508 1509 1500 1492 1488 1483 1476 1472 1466 1464 1462 1461 1461 1461 1461 1462 1463 1465 1466 1467 1469 1470 1472 1475 1478 1482 1485 1485 1488 1491 1503 1503 1504 1506 1510 1513 1515 1516 1518 1521 1524 1526 1528 1531
1540 1539 1529 1527 1510 1505 1501 1487 1485 1479 1476 1471 1466 1460 1456 1455 1454 1454 1455 1456 1456 1457 1458 1460 1460 1462 1464 1468 1471 1474 1478 1481 1485 1488 1489 1496 1501 1503 1506 1509 1512 1514 1515 1516 1518 1521 1524 1527 1529
1532 1533 1530 1519 1508 1505 1494 1489 1472 1472 1465 1461 1456 1453 1450 1449 1450 1451 1451 1452 1451 1453 1454 1454 1454 1454 1457 1461 1464 1469 1473 1480 1482 1485 1483 1491 1499 1503 1504 1508 1509 1511 1515 1515 1516 1519 1522 1525 1528
1529 1531 1525 1512 1505 1506 1489 1489 1470 1465 1460 1455 1450 1449 1447 1446 1447 1447 1446 1446 1446 1448 1449 1449 1448 1448 1449 1455 1460 1464 1467 1472 1476 1481 1479 1481 1495 1500 1503 1506 1508 1509 1512 1513 1515 1517 1518 1521 1526
1526 1526 1519 1516 1503 1501 1492 1486 1470 1457 1454 1449 1444 1440 1442 1442 1442 1442 1441 1440 1440 1442 1442 1443 1441 1442 1445 1450 1453 1458 1463 1466 1471 1474 1477 1477 1485 1498 1503 1506 1508 1509 1510 1512 1514 1515 1516 1518 1523
1536 1512 1511 1510 1517 1523 1499 1493 1475 1462 1455 1447 1443 1438 1441 1442 1440 1438 1435 1433 1432 1432 1433 1435 1434 1435 1438 1443 1446 1450 1455 1461 1464 1470 1473 1478 1477 1493 1503 1505 1508 1508 1507 1511 1513 1514 1514 1518 1520
1517 1509 1510 1506 1513 1523 1500 1506 1478 1464 1455 1449 1446 1443 1442 1439 1435 1431 1427 1423 1420 1416 1415 1415 1419 1424 1430 1435 1440 1445 1450 1456 1460 1466 1472 1472 1481 1488 1500 1506 1505 1505 1506 1509 1512 1512 1513 1517 1520
1511 1510 1504 1511 1521 1530 1499 1502 1468 1459 1452 1448 1444 1441 1438 1434 1430 1423 1417 1409 1404 1404 1402 1402 1406 1412 1420 1427 1434 1438 1443 1449 1454 1461 1468 1470 1482 1481 1497 1500 1503 1504 1504 1507 1509 1510 1512 1516 1518
1511 1520 1542 1539 1543 1518 1489 1494 1472 1450 1447 1445 1442 1438 1435 1430 1421 1412 1404 1398 1393 1391 1391 1392 1399 1404 1413 1421 1428 1432 1437 1444 1450 1456 1461 1466 1468 1481 1494 1499 1502 1503 1504 1505 1507 1508 1512 1516 1519
1512 1518 1545 1542 1541 1503 1487 1494 1464 1443 1441 1442 1440 1435 1426 1420 1411 1402 1393 1387 1383 1381 1382 1386 1394 1401 1409 1416 1423 1428 1435 1440 1447 1453 1461 1464 1467 1480 1494 1497 1499 1504 1503 1504 1506 1507 1512 1517 1519
1510 1521 1512 1520 1514 1517 1493 1470 1449 1435 1437 1440 1436 1431 1426 1416 1403 1394 1386 1381 1377 1375 1379 1384 1392 1398 1405 1412 1418 1425 1431 1436 1444 1451 1458 1465 1465 1480 1493 1495 1499 1502 1502 1504 1505 1506 1513 1517 1520
1505 1506 1523 1529 1535 1516 1495 1474 1464 1440 1438 1436 1434 1427 1417 1406 1399 1390 1382 1379 1378 1380 1383 1387 1392 1397 1403 1409 1417 1421 1427 1434 1442 1449 1454 1464 1465 1479 1489 1492 1498 1499 1501 1504 1506 1509 1513 1516 1519
1509 1511 1511 1518 1522 1533 1514 1465 1437 1436 1433 1436 1428 1420 1413 1406 1398 1390 1385 1383 1383 1384 1385 1389 1393 1398 1403 1408 1413 1419 1425 1433 1441 1447 1456 1465 1470 1480 1485 1491 1495 1497 1501 1505 1510 1512 1514 1515 1516
1495 1498 1504 1526 1518 1511 1504 1452 1433 1430 1433 1433 1428 1418 1410 1403 1396 1390 1385 1384 1384 1385 1388 1391 1395 1398 1401 1406 1411 1418 1426 1433 1441 1449 1458 1465 1471 1480 1485 1490 1495 1497 1503 1508 1513 1513 1514 1514 1515